Flag for U.S.A. Weather past 2 weeks in Youngstown, Ohio, U.S.A.

Now
48 °F

Scattered clouds.


Feels Like: 42 °F
Forecast: 33 / 47 °F
Wind: 14 mph from Southwest

Location: Youngstown-Warren Regional Airport

Current Time: Dec 26, 2014 at 3:57:43 PM

Latest Report: Dec 26, 2014 at 2:51 PM


Visibility: 10 mi

Pressure: 30.16 "Hg

Humidity: 56%

Dew point: 33 °F

Location of YoungstownLocation

Historic Weather in Youngstown — Graph

°F

Youngstown temperature yesterday

Maximum temperature yesterday: 40 °F (at 12:51 AM)
Minimum temperature yesterday: 37 °F (at 4:51 AM)
Average temperature yesterday: 38 °F

Past Weeks' High & Low Weather Summary

 TemperatureHumidityPressure
High59 °F (Dec 24, 7:51 PM)100% (Dec 13, 6:51 PM)30.34 "Hg (Dec 13, 6:51 PM)
Low23 °F (Dec 22, 3:51 AM)49% (Dec 11, 6:51 PM)29.27 "Hg (Dec 24, 7:51 PM)
Average36 °F83%30.06 "Hg
* Reported Dec 11 2:51 PM — Dec 26 2:51 PM, Youngstown, Weather by CustomWeather, © 2014

Note: Actual official high and low records may vary slightly from our data, if they occured in-between our weather recording intervals... More about our weather records

Advertising

Youngstown weather history for previous 24 hours

 ConditionsComfort  
Time TempWeatherWind HumidityBarometerVisibility
2:51 PM
Dec 26
48 °FScattered clouds.14 mph56%30.16 "Hg10 mi
1:51 PM47 °FScattered clouds.13 mph59%30.17 "Hg10 mi
12:51 PM45 °FScattered clouds.9 mph65%30.19 "Hg10 mi
11:51 AM43 °FPassing clouds.9 mph68%30.22 "Hg10 mi
10:51 AM40 °FPassing clouds.12 mph70%30.25 "Hg10 mi
9:51 AM36 °FPassing clouds.10 mph79%30.27 "Hg10 mi
8:51 AM34 °FPassing clouds.9 mph79%30.27 "Hg10 mi
7:51 AM32 °FPassing clouds.6 mph82%30.27 "Hg10 mi
6:51 AM32 °FPassing clouds.7 mph82%30.26 "Hg10 mi
5:51 AM33 °FPassing clouds.6 mph78%30.26 "Hg10 mi
4:58 AM34 °FPassing clouds.5 mph79%30.21 "Hg10 mi
3:51 AM35 °FOvercast.6 mph75%30.23 "Hg10 mi
2:51 AM36 °FOvercast.8 mph73%30.22 "Hg10 mi
1:51 AM36 °FOvercast.9 mph73%30.18 "Hg10 mi
12:51 AM37 °FOvercast.8 mph70%30.19 "Hg10 mi
11:51 PM
Dec 25
37 °FOvercast.12 mph70%30.20 "Hg10 mi
10:51 PM37 °FOvercast.9 mph73%30.19 "Hg10 mi
9:51 PM37 °FOvercast.12 mph73%30.20 "Hg10 mi
8:51 PM37 °FOvercast.8 mph73%30.20 "Hg10 mi
7:51 PM37 °FOvercast.10 mph73%30.18 "Hg10 mi
6:51 PM37 °FOvercast.10 mph70%30.16 "Hg10 mi
5:51 PM37 °FMostly cloudy.10 mph70%30.13 "Hg10 mi
4:51 PM38 °FOvercast.17 mph68%30.11 "Hg10 mi
3:51 PM38 °FOvercast.12 mph73%30.08 "Hg10 mi
Weather by CustomWeather, © 2014

See weather overviewHow to use our weather pages